Location: Zagreb
(45.8000°N, 16.0000°E)
Time: 12:44:21
(UTC+02:00)

Envisat - Pass Details

Date: 27 January 2022
Orbit: 764 x 765 km, 98.2° (Epoch: 22 May)

Event Time Altitude Azimuth Distance (km) Brightness Sun altitude
Rises 06:19:14 0° 0° (N) 3,241 6.1 -11.3°
Reaches altitude 10° 06:22:08 10° 343° (NNW) 2,311 5.2 -10.9°
Maximum altitude 06:25:38 19° 300° (WNW) 1,758 4.3 -10.3°
Drops below altitude 10° 06:29:08 10° 256° (WSW) 2,301 5.0 -9.7°
Sets 06:32:01 0° 239° (WSW) 3,223 5.8 -9.2°
